Starlink 11492

operational
NORAD ID: 62224 Int'l Des: 2024-231 Owner: SPXS Country: US Constellation: starlink
LEOCIRCULAR

Über Starlink 11492

Beschreibung wird geladen...

Live-Position

3D-Globus wird geladen...

Nächste Überflüge

Höhenverlauf

Altitude vs Time

uPlot chart will show altitude changes over time

Zweizeiliger Elementsatz

1 62224U 24231G 25259.65199770 .00119678 00000-0 97827-3 0 9993
2 62224 53.1568 239.4590 0001492 79.5826 280.5360 15.69715342 46075
Epoch: 16. Sept. 2025 • Age: 30 hours

Aktueller Status

Höhe 358.9 km
Geschwindigkeit 7.70 km/s
Subsatellitenpunkt 17.32°N, 82.62°E
Startdatum 5. Dez. 2024
Alter 0.7 years
Typ internet

Technische Details

Klassifizierung Payload
Masse 960.00 kg
Trockenmasse 910.00 kg
Gesamtmasse 960.00 kg
Länge 0.30 m
Durchmesser 4.10 m
Spannweite 29.00 m
Form Box + pan
Hersteller SPXS
Bus-Typ Starlink V2MD
Phasenstatus In Orbit
Besitzer/Staat SPXS/US

Große Konstellationen

Loading constellations...